Time,TemperatureF,DewpointF,PressureIn,WindDirection,WindDirectionDegrees,WindSpeedMPH,WindSpeedGustMPH,Humidity,HourlyPrecipIn,Conditions,Clouds,dailyrainin,SoftwareType,DateUTC
2013-09-13 00:13:00,70.0,54.0,30.01,NNE,13,3.0,3.0,56,0.00,,,0.04,,2013-09-13 05:13:00,
2013-09-13 00:22:00,70.0,54.0,30.01,NNE,13,3.0,3.0,56,0.00,,,0.04,,2013-09-13 05:22:00,
2013-09-13 00:53:00,68.0,54.0,30.01,NW,312,1.0,2.0,60,0.00,,,0.04,,2013-09-13 05:53:00,
2013-09-13 01:12:00,67.0,54.0,30.01,NW,315,1.0,1.0,63,0.00,,,0.04,,2013-09-13 06:12:00,
2013-09-13 01:22:00,67.0,54.0,30.01,NW,315,0.0,2.0,64,0.00,,,0.04,,2013-09-13 06:22:00,
2013-09-13 01:52:00,65.0,54.0,30.02,NW,318,0.0,1.0,68,0.00,,,0.04,,2013-09-13 06:52:00,
2013-09-13 02:22:00,64.0,55.0,30.03,NNW,340,1.0,1.0,72,0.00,,,0.04,,2013-09-13 07:22:00,
2013-09-13 02:52:00,63.0,55.0,30.03,NNW,340,0.0,1.0,75,0.00,,,0.04,,2013-09-13 07:52:00,
2013-09-13 03:11:00,62.0,55.0,30.04,NNW,340,0.0,0.0,77,0.00,,,0.04,,2013-09-13 08:11:00,
2013-09-13 03:22:00,62.0,55.0,30.04,NNW,340,0.0,0.0,78,0.00,,,0.04,,2013-09-13 08:22:00,
2013-09-13 03:52:00,62.0,56.0,30.04,NW,309,0.0,0.0,80,0.00,,,0.04,,2013-09-13 08:52:00,
2013-09-13 04:12:00,61.0,55.0,30.04,NW,309,0.0,2.0,82,0.00,,,0.04,,2013-09-13 09:12:00,
2013-09-13 04:21:00,61.0,55.0,30.05,NW,309,1.0,2.0,82,0.00,,,0.04,,2013-09-13 09:21:00,
2013-09-13 04:53:00,61.0,56.0,30.05,NW,312,1.0,2.0,84,0.00,,,0.04,,2013-09-13 09:53:00,
2013-09-13 05:23:00,60.0,56.0,30.06,North,5,0.0,2.0,86,0.00,,,0.04,,2013-09-13 10:23:00,
2013-09-13 05:52:00,60.0,56.0,30.06,NNE,22,2.0,3.0,87,0.00,,,0.04,,2013-09-13 10:52:00,
2013-09-13 06:12:00,60.0,56.0,30.06,NNE,22,0.0,0.0,87,0.00,,,0.04,,2013-09-13 11:12:00,
2013-09-13 06:22:00,60.0,56.0,30.07,NNE,22,1.0,1.0,87,0.00,,,0.04,,2013-09-13 11:22:00,
2013-09-13 06:52:00,60.0,56.0,30.09,NNE,22,0.0,0.0,88,0.00,,,0.04,,2013-09-13 11:52:00,
2013-09-13 07:12:00,59.0,56.0,30.10,NNE,22,0.0,2.0,89,0.00,,,0.04,,2013-09-13 12:12:00,
2013-09-13 07:21:00,59.0,56.0,30.10,NNE,17,0.0,2.0,89,0.00,,,0.04,,2013-09-13 12:21:00,
2013-09-13 07:52:00,59.0,56.0,30.11,NNE,17,1.0,1.0,91,0.00,,,0.04,,2013-09-13 12:52:00,
2013-09-13 08:11:00,60.0,57.0,30.11,NNE,30,3.0,3.0,91,0.00,,,0.04,,2013-09-13 13:11:00,
2013-09-13 08:21:00,60.0,57.0,30.11,NNE,29,3.0,3.0,90,0.00,,,0.04,,2013-09-13 13:21:00,
2013-09-13 08:52:00,61.0,57.0,30.12,NNE,33,3.0,3.0,86,0.00,,,0.04,,2013-09-13 13:52:00,
2013-09-13 09:22:00,63.0,57.0,30.12,NE,36,2.0,3.0,80,0.00,,,0.03,,2013-09-13 14:22:00,
2013-09-13 09:52:00,65.0,56.0,30.13,ENE,63,1.0,3.0,73,0.00,,,0.03,,2013-09-13 14:52:00,
2013-09-13 10:22:00,67.0,54.0,30.13,NNE,29,3.0,3.0,64,0.00,,,0.03,,2013-09-13 15:22:00,
2013-09-13 10:53:00,67.0,51.0,30.14,NE,56,3.0,6.0,56,0.00,,,0.03,,2013-09-13 15:53:00,
2013-09-13 11:24:00,68.0,52.0,30.13,NE,41,7.0,8.0,57,0.00,,,0.00,,2013-09-13 16:24:00,
2013-09-13 11:54:00,69.0,52.0,30.12,NNE,17,3.0,5.0,54,0.00,,,0.00,,2013-09-13 16:54:00,
2013-09-13 12:13:00,70.0,52.0,30.12,NNE,23,2.0,3.0,53,0.00,,,0.00,,2013-09-13 17:13:00,
2013-09-13 12:24:00,70.0,52.0,30.12,NNE,23,2.0,3.0,53,0.00,,,0.00,,2013-09-13 17:24:00,
2013-09-13 12:33:00,70.0,52.0,30.12,NNE,23,2.0,3.0,53,0.00,,,0.00,,2013-09-13 17:33:00,
2013-09-13 18:22:00,71.0,51.0,30.08,NNE,28,3.0,5.0,49,0.00,,,0.00,,2013-09-13 23:22:00,
2013-09-13 18:52:00,70.0,50.0,30.08,NNE,29,0.0,0.0,49,0.00,,,0.00,,2013-09-13 23:52:00,
2013-09-13 19:12:00,69.0,50.0,30.08,NNE,29,0.0,0.0,51,0.00,,,0.00,,2013-09-14 00:12:00,
2013-09-13 19:22:00,68.0,50.0,30.08,NNE,29,0.0,0.0,52,0.00,,,0.00,,2013-09-14 00:22:00,
2013-09-13 19:52:00,66.0,52.0,30.09,NNE,29,0.0,0.0,61,0.00,,,0.00,,2013-09-14 00:52:00,
2013-09-13 20:11:00,64.0,51.0,30.09,NNE,29,0.0,0.0,63,0.00,,,0.00,,2013-09-14 01:11:00,
2013-09-13 20:22:00,63.0,51.0,30.10,NNE,29,0.0,0.0,65,0.00,,,0.00,,2013-09-14 01:22:00,
2013-09-13 20:42:00,62.0,51.0,30.11,NNE,29,0.0,0.0,67,0.00,,,0.00,,2013-09-14 01:42:00,
2013-09-13 20:52:00,61.0,50.0,30.11,NNE,29,0.0,0.0,67,0.00,,,0.00,,2013-09-14 01:52:00,
2013-09-13 21:12:00,60.0,51.0,30.11,NNE,29,0.0,0.0,72,0.00,,,0.00,,2013-09-14 02:12:00,
2013-09-13 21:22:00,60.0,51.0,30.12,NNE,29,0.0,0.0,73,0.00,,,0.00,,2013-09-14 02:22:00,
2013-09-13 21:42:00,59.0,50.0,30.12,NNE,29,0.0,0.0,73,0.00,,,0.00,,2013-09-14 02:42:00,
2013-09-13 21:52:00,59.0,50.0,30.12,NNE,29,0.0,0.0,73,0.00,,,0.00,,2013-09-14 02:52:00,
2013-09-13 22:22:00,58.0,50.0,30.12,NNE,29,0.0,0.0,75,0.00,,,0.00,,2013-09-14 03:22:00,
2013-09-13 22:54:00,57.0,50.0,30.13,NNE,29,0.0,0.0,77,0.00,,,0.00,,2013-09-14 03:54:00,
2013-09-13 23:24:00,56.0,50.0,30.13,NNE,29,0.0,0.0,79,0.00,,,0.00,,2013-09-14 04:24:00,
2013-09-13 23:54:00,55.0,50.0,30.14,NNE,29,0.0,0.0,83,0.00,,,0.00,,2013-09-14 04:54:00,